[[{"header":{"parameterUnit":"m.s-1","parameterCategory":2,"la1":30.2991,"la2":30.254,"lo1":-89.0895,"lo2":-89.0444,"dy":0.0017,"dx":0.0017,"nx":28,"ny":28,"refTime":"2025-08-30T21:00:00:Z","depth":"0","parameterNumber":2,"parameterNumberName":"U-component_of_CURRENTS"},"data":[0,0,0,0,0,0,0,0,0,0,0,0,0,0,0,0,0,0,0,0,0,0,0,0,0,0,0,0,0,0,0,0,0,0,0,0,0,0,0,0,0,0,0,0,0,0,0,0,0,0,0,0,0,0,0,0,0,0,-0.3033,-0.3034,0,-0.3106,-0.3106,-0.3107,-0.3058,-0.3056,-0.3055,-0.3053,-0.3025,-0.3026,-0.3026,0,0,0,0,0,0,0,0,0,0,0,0,0,-0.2783,-0.2787,-0.3032,-0.3034,-0.3036,-0.3106,-0.3106,-0.3107,-0.3058,-0.3056,-0.3054,-0.3052,-0.3025,-0.3025,-0.3026,0,0,0,0,0,0,0,0,0,0,0,0,0,-0.2871,-0.2789,-0.3032,-0.3025,-0.3025,-0.3106,-0.3106,-0.3107,-0.3058,-0.3056,-0.3054,-0.3051,-0.3024,-0.3025,-0.3026,-0.3081,0,0,-0.303,-0.303,0,0,0,0,0,0,0,0,-0.2866,-0.2879,-0.3024,-0.3026,-0.3027,-0.3076,-0.3008,-0.3096,-0.3059,-0.3038,-0.3053,-0.305,-0.3039,-0.3039,-0.3049,-0.308,-0.3079,-0.303,-0.3031,-0.3031,-0.3031,0,0,0,0,0,0,0,-0.286,-0.2875,-0.3054,-0.3027,-0.3028,-0.2996,-0.3005,-0.3024,-0.3044,-0.304,-0.3038,-0.3059,-0.3038,-0.3049,-0.3048,-0.3078,-0.303,-0.3031,-0.3032,-0.3032,-0.3077,-0.3077,0,0,0,0,0,0,-0.2872,-0.2871,-0.3052,-0.3057,-0.2947,-0.3003,-0.3013,-0.3057,-0.3046,-0.3045,-0.3061,-0.3056,-0.3048,-0.3047,-0.3047,-0.3062,-0.3031,-0.3032,-0.3033,-0.3076,-0.3077,-0.3077,0,0,0,0,0,0,-0.2867,-0.2889,-0.3049,-0.2969,-0.2988,-0.3011,-0.306,-0.306,-0.3061,-0.3064,-0.3059,-0.3061,-0.3046,-0.3045,-0.3045,-0.3061,-0.3033,-0.3034,-0.3076,-0.3076,-0.3077,-0.3122,0,0,0,0,0,0,-0.286,-0.2887,-0.2901,-0.2971,-0.2993,-0.3089,-0.3063,-0.3063,-0.3081,-0.3076,-0.3063,-0.3059,-0.3044,-0.3044,-0.3046,-0.3062,-0.3034,-0.3075,-0.3076,-0.3077,-0.312,-0.3125,-0.3128,0,0,0,0,0,-0.2851,-0.2865,-0.2902,-0.2923,-0.3021,-0.309,-0.3097,-0.3099,-0.3084,-0.3089,-0.3072,-0.3058,-0.3051,-0.3046,-0.3048,-0.3065,-0.3074,-0.3076,-0.3077,-0.3118,-0.3124,-0.3128,0,0,0,0,0,0,-0.2746,-0.2865,-0.2906,-0.2953,-0.3024,-0.3084,-0.3078,-0.3105,-0.3101,-0.3084,-0.3073,-0.3068,-0.307,-0.3066,-0.306,-0.3079,-0.3059,-0.3061,-0.309,-0.3095,-0.3099,-0.3088,-0.3035,0,0,0,0,0,-0.2745,-0.2782,-0.2905,-0.2932,-0.2974,-0.3035,-0.3056,-0.3083,-0.3104,-0.3099,-0.3098,-0.3087,-0.3085,-0.3085,-0.3081,-0.3105,-0.3064,-0.3115,-0.3119,-0.3122,-0.3115,-0.3066,-0.3064,-0.3081,-0.3081,-0.3081,0,0,-0.2708,-0.2776,-0.2796,-0.2912,-0.2956,-0.3017,-0.3037,-0.3082,-0.3113,-0.3099,-0.3104,-0.3103,-0.3092,-0.3104,-0.3106,-0.3099,-0.3095,-0.3124,-0.3127,-0.3118,-0.3067,-0.3065,-0.3063,-0.3082,-0.3082,-0.3082,0,0,-0.2652,-0.2726,-0.2749,-0.2819,-0.2918,-0.2978,-0.2999,-0.3086,-0.31,-0.3139,-0.3122,-0.3133,-0.3138,-0.3138,-0.3136,-0.3167,-0.3115,-0.3164,-0.3184,-0.3137,-0.3134,-0.3132,-0.3073,-0.3065,-0.3171,-0.3171,-0.3171,0,-0.2605,-0.267,-0.2759,-0.2809,-0.2853,-0.2964,-0.3007,-0.3058,-0.3126,-0.3132,-0.3135,-0.3141,-0.3154,-0.3155,-0.3173,-0.3178,-0.3127,-0.3168,-0.3141,-0.3138,-0.3134,-0.3074,-0.3065,-0.3173,-0.3173,-0.3173,-0.3172,0,-0.2594,-0.2643,-0.2656,-0.2769,-0.2826,-0.2879,-0.2996,-0.3039,-0.3082,-0.3128,-0.3143,-0.3167,-0.3159,-0.3186,-0.3197,-0.319,-0.3152,-0.3147,-0.3127,-0.3135,-0.3072,-0.3061,-0.3176,-0.3176,-0.3175,-0.3174,0,0,-0.2513,-0.2629,-0.2636,-0.2676,-0.2817,-0.2866,-0.2927,-0.3017,-0.3032,-0.3105,-0.3096,-0.3156,-0.3169,-0.3169,-0.3188,-0.3184,-0.3149,-0.3165,-0.3162,-0.3103,-0.3017,-0.2985,-0.2969,-0.3126,-0.3124,-0.3123,-0.2981,0,-0.2485,-0.2545,-0.2618,-0.2672,-0.2725,-0.2833,-0.2875,-0.2959,-0.3018,-0.3039,-0.3092,-0.3097,-0.3162,-0.3156,-0.3166,-0.315,-0.3122,-0.3187,-0.302,-0.3015,-0.2983,-0.2957,-0.2849,-0.2713,-0.297,-0.2968,-0.2967,0,-0.2473,-0.2514,-0.2556,-0.2636,-0.2667,-0.2708,-0.2786,-0.2842,-0.2914,-0.2947,-0.2978,-0.3011,-0.3044,-0.3079,-0.3053,-0.3082,-0.3049,-0.304,-0.3033,-0.2977,-0.2963,-0.2747,-0.2683,-0.267,-0.295,-0.2951,-0.2952,0,-0.2388,-0.2474,-0.2494,-0.2531,-0.2644,-0.2655,-0.2711,-0.2796,-0.2835,-0.2876,-0.2891,-0.292,-0.2932,-0.291,-0.2954,-0.2973,-0.2896,-0.2906,-0.2833,-0.283,-0.2694,-0.2681,-0.2593,-0.2839,-0.2839,-0.284,-0.284,0,-0.2352,-0.2368,-0.245,-0.2469,-0.2485,-0.2578,-0.2596,-0.2656,-0.2717,-0.2747,-0.2827,-0.2843,-0.289,-0.2885,-0.289,-0.2838,-0.2834,-0.2818,-0.2787,-0.2708,-0.2699,-0.2647,-0.2672,-0.2834,-0.2836,-0.2837,-0.2837,0,-0.2265,-0.2324,-0.2352,-0.243,-0.245,-0.2458,-0.2543,-0.2558,-0.263,-0.266,-0.2672,-0.2763,-0.2766,-0.2801,-0.2764,-0.2752,-0.2651,-0.2677,-0.2587,-0.255,-0.2473,-0.2505,-0.2355,-0.2289,-0.2542,-0.254,-0.2539,0,-0.2225,-0.2228,-0.2299,-0.2306,-0.2337,-0.237,-0.2394,-0.2495,-0.2525,-0.262,-0.2621,-0.2655,-0.268,-0.2631,-0.2612,-0.2556,-0.2565,-0.2404,-0.2439,-0.2438,-0.2451,-0.2468,-0.2425,-0.2264,-0.2261,-0.2258,-0.2256,0,-0.2134,-0.2157,-0.2179,-0.2198,-0.2218,-0.2252,-0.2297,-0.2319,-0.2431,-0.2466,-0.2511,-0.2532,-0.2538,-0.2469,-0.2422,-0.2377,-0.2341,-0.2342,-0.2345,-0.2228,-0.2231,-0.2162,-0.2397,-0.223,-0.2232,-0.2234,-0.2235,-0.2236,-0.2045,-0.2037,-0.2062,-0.2068,-0.2095,-0.2109,-0.2093,-0.2166,-0.2197,-0.2234,-0.234,-0.2346,-0.2329,-0.2271,-0.2231,-0.2116,-0.2173,-0.2042,-0.2077,-0.2091,-0.2044,-0.2233,-0.2047,-0.2048,-0.2049,-0.205,-0.2051,0,-0.1921,-0.1926,-0.1929,-0.1934,-0.1908,-0.197,-0.2001,-0.1969,-0.196,-0.2054,-0.208,-0.2114,-0.2031,-0.2038,-0.1957,-0.1872,-0.1826,-0.1822,-0.181,-0.1776,-0.1919,-0.1926,-0.1701,-0.1701,-0.1701,-0.1701,-0.1701,-0.1701,-0.1856,-0.1814,-0.1819,-0.1735,-0.1734,-0.1661,-0.1649,-0.1634,-0.167,-0.1691,-0.1762,-0.1868,-0.1887,-0.1962,-0.1844,-0.1751,-0.1709,-0.1644,-0.1683,-0.1803,-0.1827,-0.185,-0.1862,-0.1626,-0.1626,-0.146,-0.1459,-0.1458]},{"header":{"parameterUnit":"m.s-1","parameterCategory":2,"la1":30.2991,"la2":30.254,"lo1":-89.0895,"lo2":-89.0444,"dy":0.0017,"dx":0.0017,"nx":28,"ny":28,"refTime":"2025-08-30T21:00:00:Z","depth":"0","parameterNumber":3,"parameterNumberName":"V-component_of_CURRENTS"},"data":[0,0,0,0,0,0,0,0,0,0,0,0,0,0,0,0,0,0,0,0,0,0,0,0,0,0,0,0,0,0,0,0,0,0,0,0,0,0,0,0,0,0,0,0,0,0,0,0,0,0,0,0,0,0,0,0,0,0,-0.0309,-0.0308,0,-0.0222,-0.0221,-0.0219,-0.0164,-0.0164,-0.0164,-0.0164,-0.0024,-0.002,-0.0017,0,0,0,0,0,0,0,0,0,0,0,0,0,-0.0377,-0.0376,-0.0309,-0.0308,-0.0308,-0.0222,-0.0221,-0.0219,-0.0164,-0.0164,-0.0164,-0.0164,-0.0025,-0.0021,-0.0016,0,0,0,0,0,0,0,0,0,0,0,0,0,-0.0322,-0.0375,-0.0309,-0.0272,-0.0268,-0.0222,-0.0221,-0.0219,-0.0164,-0.0164,-0.0164,-0.0163,-0.0026,-0.0021,-0.0016,0.0016,0,0,0.0001,0.0004,0,0,0,0,0,0,0,0,-0.0325,-0.0319,-0.0278,-0.0274,-0.027,-0.0206,-0.0193,-0.0138,-0.0164,-0.02,-0.0164,-0.0163,-0.0082,-0.0072,-0.0052,0.0023,0.0029,0.0002,0.0005,0.0007,0.0009,0,0,0,0,0,0,0,-0.0329,-0.0322,-0.0272,-0.0277,-0.0272,-0.0242,-0.0234,-0.0182,-0.0139,-0.0197,-0.0193,-0.0188,-0.0079,-0.0058,-0.0048,0.0031,0.0002,0.0006,0.001,0.0012,0.0155,0.0155,0,0,0,0,0,0,-0.0348,-0.0326,-0.0274,-0.0269,-0.0301,-0.0241,-0.0232,-0.0224,-0.0141,-0.0129,-0.0189,-0.0186,-0.0067,-0.0055,-0.0043,-0.0,0.0007,0.0012,0.0016,0.0154,0.0155,0.0155,0,0,0,0,0,0,-0.035,-0.0344,-0.0278,-0.0298,-0.0288,-0.0241,-0.0232,-0.0223,-0.0204,-0.0136,-0.0122,-0.018,-0.0067,-0.0051,0.0002,0.0005,0.0015,0.002,0.0154,0.0154,0.0155,0.0085,0,0,0,0,0,0,-0.0352,-0.0345,-0.0348,-0.0299,-0.0288,-0.0259,-0.0232,-0.0221,-0.0202,-0.0198,-0.0124,-0.0111,-0.0065,-0.0007,0.0007,0.0013,0.0024,0.0153,0.0154,0.0155,0.0087,0.0083,0.0081,0,0,0,0,0,-0.0355,-0.0362,-0.0348,-0.0342,-0.0292,-0.026,-0.0251,-0.0215,-0.0202,-0.0197,-0.0144,-0.0113,0.0009,-0.0002,0.0014,0.0022,0.0153,0.0154,0.0155,0.0088,0.0084,0.0081,0,0,0,0,0,0,-0.0396,-0.0356,-0.034,-0.0335,-0.0304,-0.0252,-0.0248,-0.0221,-0.0175,-0.0172,-0.0105,-0.0088,-0.0041,0.0002,-0.0012,0.0067,0.0086,0.009,0.003,0.0027,0.0023,0.0001,0.0029,0,0,0,0,0,-0.0407,-0.0402,-0.0357,-0.0356,-0.0343,-0.0295,-0.0279,-0.0255,-0.0209,-0.0189,-0.0136,-0.0077,-0.0022,0.0009,0.0061,0.0105,0.0138,0.0122,0.0119,0.0116,0.0109,0.0153,0.0152,0.0159,0.0159,0.0159,0,0,-0.0427,-0.0403,-0.0402,-0.0365,-0.0338,-0.0325,-0.0285,-0.0267,-0.0251,-0.018,-0.0143,-0.0087,-0.0014,0.0034,0.0059,0.007,0.0133,0.0117,0.0114,0.0109,0.0154,0.0153,0.0152,0.016,0.016,0.016,0,0,-0.0467,-0.0439,-0.0449,-0.0424,-0.039,-0.0355,-0.0354,-0.0301,-0.0272,-0.023,-0.0174,-0.0118,-0.0038,0.0018,0.0056,0.0069,0.0111,0.0086,0.0056,0.0098,0.0097,0.0097,0.0138,0.0141,0.0087,0.0087,0.0087,0,-0.0492,-0.0495,-0.0449,-0.0449,-0.0436,-0.0373,-0.0379,-0.0337,-0.0274,-0.0249,-0.0229,-0.0105,-0.0045,0.0021,0.0027,0.0061,0.0087,0.006,0.0091,0.0092,0.0093,0.0135,0.014,0.0084,0.0084,0.0085,0.0085,0,-0.0535,-0.0536,-0.054,-0.0516,-0.0494,-0.0489,-0.0428,-0.0398,-0.0355,-0.0308,-0.0239,-0.0152,-0.008,-0.0048,-0.0005,0.0038,0.0056,0.0076,0.0093,0.0087,0.0133,0.0139,0.0079,0.0081,0.0082,0.0082,0,0,-0.0585,-0.0576,-0.0575,-0.0582,-0.053,-0.0518,-0.0486,-0.0438,-0.0418,-0.0341,-0.0307,-0.0203,-0.0154,-0.0107,-0.004,0.0004,0.0039,0.0035,0.0039,0.006,0.0126,0.0168,0.018,0.0057,0.0058,0.0058,0.0154,0,-0.0632,-0.0665,-0.0635,-0.0653,-0.0661,-0.0595,-0.0571,-0.0516,-0.0453,-0.04,-0.0298,-0.0237,-0.0175,-0.0141,-0.0087,0.0013,0.0052,0.001,0.0142,0.0146,0.0171,0.0188,0.0217,0.0307,0.0161,0.0162,0.0163,0,-0.0675,-0.0693,-0.0732,-0.0726,-0.0721,-0.0716,-0.0666,-0.0635,-0.0538,-0.0489,-0.0406,-0.0322,-0.0223,-0.0183,-0.0027,-0.006,0.0019,0.0092,0.0097,0.0164,0.02,0.0292,0.0325,0.0475,0.0174,0.0173,0.0172,0,-0.0735,-0.0753,-0.0792,-0.0788,-0.0769,-0.0768,-0.0747,-0.0667,-0.064,-0.0543,-0.051,-0.038,-0.0312,-0.0194,-0.0031,-0.0034,0.0129,0.0148,0.0259,0.0263,0.0329,0.0338,0.051,0.0233,0.0233,0.0233,0.0233,0,-0.0788,-0.0815,-0.0828,-0.0846,-0.0881,-0.0837,-0.0842,-0.0794,-0.0726,-0.0693,-0.0564,-0.0507,-0.0316,-0.0188,-0.0053,0.0133,0.0116,0.0258,0.0293,0.0307,0.0312,0.0479,0.0528,0.0237,0.0236,0.0235,0.0234,0,-0.084,-0.0851,-0.0897,-0.0907,-0.0912,-0.0934,-0.0918,-0.0912,-0.0837,-0.079,-0.0762,-0.0599,-0.0419,-0.0222,-0.0016,0.0107,0.0368,0.0336,0.0341,0.0375,0.062,0.0662,0.0855,0.0926,0.048,0.0482,0.0483,0,-0.087,-0.0902,-0.0951,-0.0985,-0.0995,-0.1018,-0.1029,-0.0975,-0.0961,-0.084,-0.0823,-0.0641,-0.0493,-0.0163,0.0089,0.0345,0.0445,0.05,0.0506,0.0646,0.072,0.075,0.0798,0.0569,0.0571,0.0572,0.0573,0,-0.092,-0.094,-0.098,-0.1059,-0.1096,-0.1128,-0.1138,-0.1146,-0.1065,-0.1005,-0.0893,-0.0764,-0.042,-0.0103,0.0233,0.0386,0.061,0.0541,0.0693,0.0809,0.0849,0.0929,0.0489,0.0588,0.0586,0.0585,0.0585,0.0584,-0.0949,-0.0998,-0.1058,-0.1126,-0.1176,-0.1221,-0.1243,-0.1229,-0.1199,-0.1084,-0.0958,-0.0733,-0.0272,0.0225,0.0403,0.0792,0.0751,0.0905,0.0947,0.0967,0.1036,0.0624,0.0757,0.0757,0.0756,0.0756,0.0755,0,-0.0983,-0.1041,-0.1117,-0.1199,-0.1262,-0.1267,-0.1298,-0.1289,-0.1253,-0.1106,-0.0961,-0.0458,0.0001,0.043,0.098,0.1186,0.1223,0.1285,0.1343,0.1373,0.1027,0.1032,0.1223,0.1223,0.1223,0.1222,0.1222,0.1222,-0.1003,-0.1085,-0.1131,-0.1247,-0.1301,-0.1355,-0.1369,-0.1334,-0.1239,-0.0982,-0.0702,-0.048,0.0153,0.1024,0.1529,0.1574,0.1726,0.1716,0.1794,0.1567,0.1535,0.1504,0.1524,0.1815,0.1815,0.213,0.2133,0.2136]}],[{"header":{"parameterUnit":"m.s-1","parameterCategory":2,"la1":30.2991,"la2":30.254,"lo1":-89.0895,"lo2":-89.0444,"dy":0.0017,"dx":0.0017,"nx":28,"ny":28,"refTime":"2025-08-30T21:00:00:Z","depth":"2","parameterNumber":2,"parameterNumberName":"U-component_of_CURRENTS"},"data":[0,0,0,0,0,0,0,0,0,0,0,0,0,0,0,0,0,0,0,0,0,0,0,0,0,0,0,0,0,0,0,0,0,0,0,0,0,0,0,0,0,0,0,0,0,0,0,0,0,0,0,0,0,0,0,0,0,0,-0.2504,-0.2505,0,-0.2599,-0.26,-0.26,-0.2576,-0.2575,-0.2573,-0.2572,-0.256,-0.2561,-0.2561,0,0,0,0,0,0,0,0,0,0,0,0,0,-0.2361,-0.2363,-0.2503,-0.2505,-0.2507,-0.2599,-0.26,-0.2601,-0.2576,-0.2575,-0.2573,-0.2571,-0.2559,-0.256,-0.2562,0,0,0,0,0,0,0,0,0,0,0,0,0,-0.2431,-0.2363,-0.2503,-0.251,-0.2512,-0.2599,-0.26,-0.2601,-0.2577,-0.2574,-0.2572,-0.257,-0.2559,-0.256,-0.2562,-0.2612,0,0,-0.2566,-0.2567,0,0,0,0,0,0,0,0,-0.2427,-0.2435,-0.2507,-0.251,-0.2512,-0.2578,-0.2545,-0.2601,-0.2577,-0.2546,-0.2572,-0.2569,-0.2561,-0.2562,-0.2578,-0.2611,-0.2611,-0.2566,-0.2567,-0.2568,-0.2568,0,0,0,0,0,0,0,-0.2422,-0.2431,-0.2536,-0.2509,-0.2512,-0.253,-0.2536,-0.2556,-0.2558,-0.2549,-0.2548,-0.2569,-0.256,-0.2577,-0.2578,-0.2611,-0.2566,-0.2567,-0.2568,-0.2569,-0.2648,-0.2649,0,0,0,0,0,0,-0.2421,-0.2427,-0.2533,-0.2539,-0.247,-0.2534,-0.2541,-0.2555,-0.256,-0.2561,-0.257,-0.2567,-0.2576,-0.2576,-0.2577,-0.2609,-0.2568,-0.2569,-0.257,-0.2647,-0.2648,-0.2649,0,0,0,0,0,0,-0.2417,-0.2429,-0.2529,-0.249,-0.2504,-0.2539,-0.2554,-0.2558,-0.2577,-0.2579,-0.2576,-0.2587,-0.2574,-0.2575,-0.2588,-0.2608,-0.257,-0.2571,-0.2645,-0.2647,-0.2649,-0.2689,0,0,0,0,0,0,-0.2413,-0.2427,-0.2436,-0.249,-0.2507,-0.2572,-0.2557,-0.2561,-0.2595,-0.2592,-0.2592,-0.2589,-0.2573,-0.2586,-0.2589,-0.261,-0.2572,-0.2644,-0.2646,-0.2648,-0.2686,-0.2692,-0.2697,0,0,0,0,0,-0.2407,-0.2418,-0.2435,-0.2449,-0.2517,-0.2573,-0.2583,-0.2597,-0.2598,-0.2606,-0.2605,-0.2589,-0.2602,-0.2588,-0.2592,-0.2613,-0.2642,-0.2645,-0.2648,-0.2684,-0.2691,-0.2697,0,0,0,0,0,0,-0.2354,-0.242,-0.2438,-0.2468,-0.2518,-0.257,-0.258,-0.261,-0.2622,-0.2613,-0.2608,-0.2605,-0.2625,-0.262,-0.2604,-0.2643,-0.262,-0.2623,-0.2646,-0.2652,-0.2658,-0.2644,-0.2573,0,0,0,0,0,-0.2354,-0.2373,-0.2447,-0.2465,-0.2491,-0.2545,-0.2571,-0.2593,-0.2618,-0.2622,-0.2626,-0.263,-0.2645,-0.2646,-0.2653,-0.2681,-0.2646,-0.2697,-0.2702,-0.2707,-0.2699,-0.2665,-0.2666,-0.2659,-0.2659,-0.2659,0,0,-0.2338,-0.2376,-0.2387,-0.2456,-0.2489,-0.2532,-0.2552,-0.2595,-0.2628,-0.262,-0.2642,-0.2652,-0.2658,-0.2679,-0.2688,-0.2673,-0.2692,-0.271,-0.2714,-0.2704,-0.2668,-0.2669,-0.2669,-0.266,-0.266,-0.266,0,0,-0.2315,-0.2351,-0.2365,-0.2411,-0.2479,-0.2521,-0.254,-0.2606,-0.2625,-0.2673,-0.2668,-0.269,-0.2716,-0.2719,-0.2727,-0.2773,-0.2725,-0.2779,-0.2792,-0.276,-0.276,-0.2759,-0.2713,-0.2707,-0.2777,-0.2777,-0.2777,0,-0.2294,-0.2327,-0.2377,-0.2411,-0.2446,-0.2518,-0.2551,-0.2597,-0.2656,-0.2669,-0.2677,-0.272,-0.2736,-0.2756,-0.2776,-0.2785,-0.2746,-0.2766,-0.2764,-0.2763,-0.2761,-0.2714,-0.2708,-0.2779,-0.2779,-0.2779,-0.2779,0,-0.2293,-0.2325,-0.2335,-0.2399,-0.2443,-0.2483,-0.2563,-0.26,-0.2645,-0.2686,-0.2723,-0.2753,-0.2766,-0.2793,-0.2806,-0.2812,-0.2781,-0.2777,-0.2742,-0.2764,-0.2714,-0.2706,-0.2783,-0.2782,-0.2781,-0.2781,0,0,-0.2232,-0.2318,-0.2321,-0.2349,-0.2444,-0.2478,-0.2536,-0.2603,-0.2625,-0.2692,-0.2705,-0.2777,-0.2786,-0.2797,-0.2815,-0.2811,-0.2791,-0.2793,-0.279,-0.2737,-0.2695,-0.2654,-0.2642,-0.2774,-0.2773,-0.2773,-0.2663,0,-0.2216,-0.2262,-0.2316,-0.2361,-0.2395,-0.2472,-0.2515,-0.2582,-0.2636,-0.2663,-0.2716,-0.274,-0.279,-0.2796,-0.2803,-0.2796,-0.2772,-0.2819,-0.2691,-0.2687,-0.2639,-0.2633,-0.2453,-0.2338,-0.2655,-0.2654,-0.2653,0,-0.2201,-0.2236,-0.2272,-0.2343,-0.2363,-0.2399,-0.2464,-0.2516,-0.258,-0.2617,-0.2653,-0.2686,-0.2717,-0.2745,-0.2729,-0.2749,-0.2722,-0.2715,-0.2709,-0.2649,-0.2632,-0.2369,-0.2312,-0.264,-0.2641,-0.2642,-0.2643,0,-0.2131,-0.2203,-0.2225,-0.2254,-0.2347,-0.2365,-0.2412,-0.2486,-0.2525,-0.2571,-0.2592,-0.2625,-0.2643,-0.2627,-0.2658,-0.2672,-0.2615,-0.2622,-0.255,-0.2546,-0.2357,-0.2338,-0.2574,-0.2574,-0.2574,-0.2575,-0.2575,0,-0.2098,-0.2114,-0.219,-0.2204,-0.2227,-0.2306,-0.2333,-0.2387,-0.2448,-0.2477,-0.255,-0.257,-0.2615,-0.2612,-0.2612,-0.2563,-0.2571,-0.2539,-0.2513,-0.2368,-0.2352,-0.2591,-0.2594,-0.2571,-0.2571,-0.2572,-0.2573,0,-0.202,-0.2074,-0.2102,-0.2177,-0.2196,-0.2209,-0.229,-0.2308,-0.2381,-0.2412,-0.2426,-0.251,-0.2515,-0.2544,-0.2518,-0.25,-0.2459,-0.2432,-0.2262,-0.222,-0.2413,-0.2421,-0.2314,-0.2311,-0.2309,-0.2307,-0.2306,0,-0.1984,-0.1987,-0.2056,-0.2066,-0.2097,-0.2133,-0.2157,-0.2254,-0.2283,-0.2377,-0.2379,-0.2417,-0.2431,-0.2391,-0.2364,-0.2311,-0.2391,-0.2099,-0.211,-0.24,-0.2386,-0.2396,-0.2406,-0.1863,-0.1858,-0.1854,-0.1851,0,-0.1903,-0.1926,-0.1948,-0.1969,-0.1992,-0.2024,-0.2069,-0.209,-0.2197,-0.223,-0.2271,-0.2286,-0.2288,-0.2175,-0.213,-0.2078,-0.2101,-0.2016,-0.2322,-0.1985,-0.1974,-0.1962,-0.1985,-0.1815,-0.1819,-0.1821,-0.1823,-0.1825,-0.1825,-0.182,-0.1844,-0.1853,-0.1881,-0.1893,-0.1877,-0.1942,-0.1968,-0.1996,-0.2096,-0.2064,-0.2057,-0.1919,-0.1829,-0.1762,-0.1911,-0.1804,-0.1816,-0.1833,-0.1828,-0.1817,-0.1626,-0.1628,-0.163,-0.1632,-0.1634,0,-0.1716,-0.1721,-0.1725,-0.1732,-0.1709,-0.1768,-0.1793,-0.1757,-0.174,-0.1804,-0.1818,-0.1657,-0.159,-0.1599,-0.1454,-0.1424,-0.1404,-0.1346,-0.1316,-0.1352,-0.1384,-0.1358,-0.103,-0.1028,-0.1026,-0.1025,0,0,-0.1658,-0.1621,-0.1624,-0.1548,-0.155,-0.1481,-0.1467,-0.1439,-0.1449,-0.1403,-0.1393,-0.1519,-0.156,-0.1303,-0.1233,-0.1114,-0.1218,-0.1052,-0.1536,-0.1537,-0.1567,-0.1646,-0.1645,0,0,0,0,0]},{"header":{"parameterUnit":"m.s-1","parameterCategory":2,"la1":30.2991,"la2":30.254,"lo1":-89.0895,"lo2":-89.0444,"dy":0.0017,"dx":0.0017,"nx":28,"ny":28,"refTime":"2025-08-30T21:00:00:Z","depth":"2","parameterNumber":3,"parameterNumberName":"V-component_of_CURRENTS"},"data":[0,0,0,0,0,0,0,0,0,0,0,0,0,0,0,0,0,0,0,0,0,0,0,0,0,0,0,0,0,0,0,0,0,0,0,0,0,0,0,0,0,0,0,0,0,0,0,0,0,0,0,0,0,0,0,0,0,0,-0.0198,-0.0198,0,-0.0125,-0.0124,-0.0123,-0.0076,-0.0076,-0.0076,-0.0076,0.0051,0.0054,0.0057,0,0,0,0,0,0,0,0,0,0,0,0,0,-0.0269,-0.0267,-0.0198,-0.0198,-0.0197,-0.0125,-0.0124,-0.0123,-0.0076,-0.0076,-0.0076,-0.0076,0.0049,0.0053,0.0057,0,0,0,0,0,0,0,0,0,0,0,0,0,-0.0219,-0.0267,-0.0198,-0.0167,-0.0164,-0.0126,-0.0124,-0.0122,-0.0076,-0.0076,-0.0076,-0.0076,0.0048,0.0053,0.0058,0.0088,0,0,0.0073,0.0075,0,0,0,0,0,0,0,0,-0.0221,-0.0216,-0.0172,-0.0169,-0.0165,-0.0112,-0.0103,-0.005,-0.0076,-0.0106,-0.0076,-0.0076,-0.0001,0.0008,0.0025,0.0094,0.0099,0.0074,0.0077,0.0079,0.008,0,0,0,0,0,0,0,-0.0225,-0.0218,-0.0167,-0.0172,-0.0167,-0.0147,-0.014,-0.0092,-0.0052,-0.0104,-0.0101,-0.0097,0.0002,0.002,0.0028,0.0101,0.0074,0.0078,0.0081,0.0083,0.021,0.021,0,0,0,0,0,0,-0.0241,-0.0222,-0.0169,-0.0165,-0.0197,-0.0146,-0.0138,-0.0127,-0.0053,-0.0043,-0.0097,-0.0095,0.0012,0.0023,0.0033,0.0069,0.0079,0.0083,0.0086,0.0209,0.021,0.021,0,0,0,0,0,0,-0.0242,-0.0237,-0.0172,-0.0194,-0.0185,-0.0145,-0.0133,-0.0126,-0.011,-0.0049,-0.0038,-0.0091,0.0012,0.0026,0.0071,0.0075,0.0086,0.009,0.0209,0.021,0.021,0.0144,0,0,0,0,0,0,-0.0245,-0.0237,-0.024,-0.0195,-0.0184,-0.0157,-0.0133,-0.0124,-0.0109,-0.0106,-0.004,-0.0028,0.0013,0.0063,0.0076,0.0082,0.0094,0.0208,0.0209,0.021,0.0146,0.0142,0.0139,0,0,0,0,0,-0.0247,-0.0255,-0.024,-0.0234,-0.0187,-0.0158,-0.015,-0.012,-0.0109,-0.0105,-0.006,-0.003,0.0077,0.0067,0.0082,0.009,0.0208,0.0209,0.021,0.0147,0.0143,0.0139,0,0,0,0,0,0,-0.0292,-0.025,-0.0233,-0.0228,-0.0198,-0.0151,-0.0151,-0.0126,-0.0087,-0.0085,-0.0025,-0.001,0.0032,0.0071,0.0059,0.0129,0.0148,0.0152,0.0095,0.0092,0.0089,0.0067,0.0098,0,0,0,0,0,-0.0302,-0.0296,-0.025,-0.025,-0.0236,-0.0193,-0.018,-0.0158,-0.0118,-0.0101,-0.0052,0.0,0.0048,0.0075,0.0123,0.0161,0.0194,0.0177,0.0173,0.017,0.0164,0.021,0.021,0.0213,0.0213,0.0213,0,0,-0.0322,-0.0299,-0.0297,-0.026,-0.0235,-0.0223,-0.0185,-0.017,-0.0158,-0.0092,-0.0062,-0.001,0.0055,0.0096,0.0119,0.0129,0.0188,0.0171,0.0168,0.0163,0.0211,0.0211,0.0211,0.0214,0.0213,0.0213,0,0,-0.0365,-0.0335,-0.0345,-0.032,-0.0288,-0.0255,-0.0254,-0.0204,-0.0179,-0.0143,-0.0092,-0.0041,0.003,0.008,0.0114,0.0124,0.0167,0.014,0.0109,0.0154,0.0154,0.0154,0.0194,0.0198,0.014,0.014,0.014,0,-0.0391,-0.0392,-0.0346,-0.0345,-0.0334,-0.0273,-0.0279,-0.0242,-0.0185,-0.0163,-0.0144,-0.0032,0.0023,0.0081,0.0084,0.0116,0.0143,0.0115,0.0148,0.0149,0.015,0.0191,0.0196,0.0137,0.0137,0.0138,0.0138,0,-0.0435,-0.0435,-0.0439,-0.0414,-0.0394,-0.0389,-0.0332,-0.0305,-0.0266,-0.0222,-0.016,-0.008,-0.0014,0.0016,0.0053,0.0095,0.0112,0.0134,0.0151,0.0145,0.0189,0.0196,0.0132,0.0134,0.0134,0.0135,0,0,-0.0483,-0.0474,-0.0473,-0.0478,-0.0429,-0.0418,-0.0392,-0.0347,-0.0329,-0.0259,-0.0227,-0.0135,-0.0086,-0.0045,0.0019,0.0062,0.0099,0.0093,0.0097,0.012,0.0192,0.0223,0.0234,0.0121,0.0122,0.0123,0.0217,0,-0.0529,-0.056,-0.0532,-0.055,-0.0556,-0.0494,-0.0475,-0.0424,-0.0366,-0.0315,-0.0221,-0.0164,-0.0109,-0.0076,-0.0024,0.0074,0.0114,0.0071,0.0205,0.0209,0.0227,0.0242,0.0215,0.0299,0.0224,0.0225,0.0226,0,-0.057,-0.0586,-0.0624,-0.0618,-0.0613,-0.061,-0.0564,-0.0537,-0.0446,-0.04,-0.0323,-0.0243,-0.015,-0.0112,0.0039,0.0007,0.0085,0.0156,0.0162,0.0218,0.0253,0.0295,0.0314,0.0238,0.0237,0.0236,0.0235,0,-0.0625,-0.0642,-0.068,-0.0677,-0.0659,-0.066,-0.0641,-0.0567,-0.0542,-0.045,-0.0418,-0.0295,-0.0229,-0.0115,0.004,0.0037,0.0198,0.0218,0.0319,0.0322,0.034,0.0343,0.0305,0.0304,0.0304,0.0304,0.0304,0,-0.0674,-0.07,-0.0714,-0.0731,-0.0764,-0.0724,-0.0729,-0.0686,-0.0621,-0.0589,-0.0468,-0.0413,-0.023,-0.0107,0.0022,0.0197,0.0188,0.0316,0.0351,0.0317,0.0317,0.0297,0.0295,0.0307,0.0307,0.0306,0.0305,0,-0.0722,-0.0733,-0.0776,-0.0788,-0.0793,-0.0814,-0.08,-0.0794,-0.0725,-0.0677,-0.0652,-0.0495,-0.0324,-0.0139,0.0063,0.0177,0.0337,0.0393,0.0341,0.0368,0.0433,0.0426,0.0521,0.0523,0.0525,0.0526,0.0527,0,-0.0749,-0.078,-0.0827,-0.0859,-0.087,-0.0893,-0.0903,-0.0853,-0.0839,-0.0723,-0.0704,-0.0532,-0.0393,-0.008,0.015,0.0387,0.0382,0.0485,0.0481,0.0432,0.0457,0.0447,0.0439,0.048,0.0481,0.0481,0.0482,0,-0.0796,-0.0816,-0.0853,-0.0928,-0.0963,-0.0992,-0.1002,-0.1007,-0.0931,-0.0873,-0.0764,-0.0644,-0.0328,-0.0058,0.025,0.0383,0.045,0.0505,0.0478,0.0426,0.04,0.0422,0.0414,0.0487,0.0486,0.0486,0.0485,0.0485,-0.0824,-0.0869,-0.0925,-0.099,-0.1037,-0.1077,-0.1096,-0.1079,-0.1048,-0.0937,-0.0822,-0.0616,-0.0347,0.0101,0.0319,0.0525,0.0526,0.0575,0.0571,0.0566,0.0541,0.052,0.0623,0.0624,0.0624,0.0624,0.0624,0,-0.0857,-0.0911,-0.0981,-0.1056,-0.1114,-0.1121,-0.1145,-0.1133,-0.1094,-0.0957,-0.0822,-0.052,-0.0203,0.0076,0.0411,0.0607,0.0588,0.0629,0.0565,0.056,0.0555,0.0527,0.0607,0.0608,0.0608,0.0608,0,0,-0.0877,-0.0953,-0.0994,-0.1099,-0.1151,-0.12,-0.1212,-0.117,-0.108,-0.094,-0.0776,-0.0547,-0.0199,0.0028,0.0281,0.0453,0.045,0.0465,0.046,0.035,0.0343,0.051,0.046,0,0,0,0,0]}],[{"header":{"parameterUnit":"m.s-1","parameterCategory":2,"la1":30.2991,"la2":30.254,"lo1":-89.0895,"lo2":-89.0444,"dy":0.0017,"dx":0.0017,"nx":28,"ny":28,"refTime":"2025-08-30T21:00:00:Z","depth":"4","parameterNumber":2,"parameterNumberName":"U-component_of_CURRENTS"},"data":[0,0,0,0,0,0,0,0,0,0,0,0,0,0,0,0,0,0,0,0,0,0,0,0,0,0,0,0,0,0,0,0,0,0,0,0,0,0,0,0,0,0,0,0,0,0,0,0,0,0,0,0,0,0,0,0,0,0,-0.1462,-0.1462,0,-0.1419,-0.1419,-0.1418,-0.1425,-0.1426,-0.1426,-0.1427,-0.1417,-0.1416,-0.1416,0,0,0,0,0,0,0,0,0,0,0,0,0,-0.1512,-0.1512,-0.1462,-0.1461,-0.1461,-0.1419,-0.1419,-0.1418,-0.1425,-0.1426,-0.1427,-0.1427,-0.1417,-0.1417,-0.1416,0,0,0,0,0,0,0,0,0,0,0,0,0,-0.1485,-0.1512,-0.1462,-0.1457,-0.1456,-0.1419,-0.1419,-0.1418,-0.1425,-0.1426,-0.1427,-0.1427,-0.1418,-0.1417,-0.1416,-0.1394,0,0,-0.1412,-0.1412,0,0,0,0,0,0,0,0,-0.1486,-0.1483,-0.1459,-0.1457,-0.1456,-0.1426,-0.1433,-0.1411,-0.1425,-0.144,-0.1427,-0.1428,-0.1421,-0.142,-0.1413,-0.1394,-0.1393,-0.1412,-0.1411,-0.1411,-0.1411,0,0,0,0,0,0,0,-0.1488,-0.1485,-0.1448,-0.1458,-0.1456,-0.1444,-0.1441,-0.1428,-0.1429,-0.1439,-0.1438,-0.1429,-0.1421,-0.1414,-0.1413,-0.1393,-0.1412,-0.1411,-0.1411,-0.141,-0.1453,-0.1454,0,0,0,0,0,0,-0.1489,-0.1487,-0.1449,-0.1446,-0.147,-0.1442,-0.1439,-0.1437,-0.1429,-0.1427,-0.1428,-0.1429,-0.1416,-0.1414,-0.1413,-0.1479,-0.1411,-0.141,-0.1409,-0.1451,-0.1453,-0.1455,0,0,0,0,0,0,-0.1491,-0.1487,-0.1451,-0.1463,-0.1457,-0.144,-0.1438,-0.1436,-0.1453,-0.142,-0.142,-0.145,-0.1416,-0.1414,-0.1433,-0.1476,-0.141,-0.1409,-0.1449,-0.1451,-0.1454,-0.1553,0,0,0,0,0,0,-0.1492,-0.1488,-0.151,-0.1463,-0.1457,-0.1449,-0.1437,-0.1434,-0.1443,-0.1445,-0.1438,-0.1436,-0.1417,-0.1435,-0.1432,-0.1473,-0.1408,-0.1446,-0.145,-0.1453,-0.1548,-0.1559,-0.1569,0,0,0,0,0,-0.1495,-0.1517,-0.1511,-0.1508,-0.148,-0.1449,-0.1446,-0.1437,-0.1444,-0.1456,-0.1459,-0.1438,-0.1454,-0.1435,-0.1431,-0.1473,-0.1445,-0.1449,-0.1453,-0.1543,-0.1557,-0.1568,0,0,0,0,0,0,-0.1542,-0.1517,-0.1511,-0.1524,-0.1497,-0.145,-0.1468,-0.1452,-0.1463,-0.1481,-0.1453,-0.1451,-0.1484,-0.1464,-0.1443,-0.1496,-0.1449,-0.1452,-0.1519,-0.1532,-0.1542,-0.1543,-0.1407,0,0,0,0,0,-0.1562,-0.1577,-0.1537,-0.1545,-0.1544,-0.1512,-0.1507,-0.1495,-0.1483,-0.1489,-0.1487,-0.149,-0.1492,-0.1501,-0.1496,-0.1521,-0.1503,-0.1548,-0.1559,-0.1567,-0.1567,-0.1592,-0.1605,-0.1468,-0.1468,-0.1468,0,0,-0.1574,-0.1567,-0.1572,-0.1557,-0.1545,-0.1551,-0.1514,-0.1515,-0.1527,-0.1486,-0.1532,-0.1523,-0.1505,-0.1537,-0.1551,-0.1531,-0.1597,-0.1573,-0.158,-0.1574,-0.1597,-0.1611,-0.1622,-0.1471,-0.147,-0.147,0,0,-0.1592,-0.161,-0.1626,-0.1624,-0.1613,-0.1597,-0.1604,-0.1582,-0.1591,-0.1607,-0.1595,-0.161,-0.1614,-0.1613,-0.1609,-0.1672,-0.1647,-0.1685,-0.1744,-0.177,-0.1781,-0.1791,-0.1783,-0.1791,-0.1696,-0.1696,-0.1696,0,-0.161,-0.1622,-0.1622,-0.1641,-0.1648,-0.1626,-0.164,-0.1645,-0.1633,-0.165,-0.164,-0.1665,-0.1646,-0.1683,-0.1706,-0.1695,-0.17,-0.1698,-0.1784,-0.1793,-0.1801,-0.1791,-0.1799,-0.1701,-0.1701,-0.17,-0.17,0,-0.1624,-0.1656,-0.167,-0.1694,-0.1708,-0.1715,-0.1719,-0.1748,-0.1758,-0.1751,-0.1794,-0.1773,-0.1785,-0.1791,-0.1763,-0.1824,-0.1805,-0.179,-0.1752,-0.1821,-0.1805,-0.1812,-0.1709,-0.1707,-0.1705,-0.1704,0,0,-0.1589,-0.1664,-0.167,-0.1697,-0.174,-0.1736,-0.18,-0.1821,-0.1853,-0.1872,-0.1906,-0.1918,-0.1911,-0.1906,-0.1889,-0.191,-0.1961,-0.1886,-0.1885,-0.1878,-0.2011,-0.1867,-0.1859,-0.1979,-0.1981,-0.1982,-0.1976,0,-0.159,-0.1638,-0.1683,-0.1734,-0.1756,-0.1801,-0.1849,-0.1884,-0.1909,-0.1946,-0.1956,-0.1973,-0.1956,-0.196,-0.1989,-0.1959,-0.1984,-0.1963,-0.1944,-0.1943,-0.1807,-0.1864,-0.1988,-0.198,-0.1981,-0.1982,-0.1983,0,-0.1575,-0.1614,-0.1667,-0.175,-0.1767,-0.1806,-0.1883,-0.192,-0.1988,-0.201,-0.2061,-0.2059,-0.2093,-0.2059,-0.2083,-0.208,-0.2059,-0.2037,-0.2036,-0.1868,-0.181,-0.1896,-0.1994,-0.1993,-0.1992,-0.1991,-0.1991,0,-0.1514,-0.1599,-0.1643,-0.1671,-0.1764,-0.1812,-0.186,-0.1939,-0.1972,-0.205,-0.2073,-0.2131,-0.2131,-0.2153,-0.2108,-0.2112,-0.2114,-0.2106,-0.1961,-0.1949,-0.2037,-0.2026,-0.2132,-0.2132,-0.2132,-0.2132,-0.2132,0,-0.1477,-0.1516,-0.1622,-0.1643,-0.1699,-0.1781,-0.1842,-0.1906,-0.1985,-0.2015,-0.2094,-0.2106,-0.2159,-0.216,-0.214,-0.2056,-0.2144,-0.1971,-0.1944,-0.2077,-0.2072,-0.204,-0.203,-0.2131,-0.2131,-0.2131,-0.2131,0,-0.14,-0.1472,-0.1528,-0.1636,-0.1672,-0.171,-0.1821,-0.1854,-0.1947,-0.199,-0.2014,-0.2092,-0.2094,-0.2117,-0.2116,-0.2053,-0.2008,-0.1958,-0.2082,-0.2062,-0.1822,-0.1817,-0.1805,-0.18,-0.1796,-0.1792,-0.1789,0,-0.1361,-0.1382,-0.1501,-0.1533,-0.1587,-0.166,-0.1703,-0.1817,-0.1848,-0.1953,-0.1951,-0.1997,-0.203,-0.1916,-0.1963,-0.1925,-0.19,-0.1866,-0.1863,-0.1816,-0.1792,-0.1794,-0.1795,-0.1783,-0.1781,-0.178,-0.1779,0,-0.1282,-0.1338,-0.1384,-0.1448,-0.1504,-0.1557,-0.1627,-0.1635,-0.1749,-0.185,-0.1834,-0.1829,-0.1822,-0.1819,-0.1793,-0.1769,-0.1886,-0.1821,-0.183,-0.1827,-0.1789,-0.1769,-0.1775,-0.1764,-0.1767,-0.1768,-0.1769,0,-0.1221,-0.1235,-0.13,-0.1342,-0.1408,-0.1424,-0.1483,-0.1512,-0.1557,-0.1678,-0.1664,-0.1721,-0.1797,-0.1735,-0.1715,-0.1677,-0.1657,-0.1604,-0.1624,-0.1641,-0.1589,-0.1516,-0.1387,0,0,0,0,0,-0.115,-0.1151,-0.1184,-0.1226,-0.1285,-0.1321,-0.1414,-0.1475,-0.1583,-0.1527,-0.1593,-0.1582,-0.1554,-0.1587,-0.1512,-0.164,-0.1664,-0.1546,-0.1614,-0.1683,-0.17,-0.1653,0,0,0,0,0,0,-0.1103,-0.1132,-0.1142,-0.1111,-0.1114,-0.1166,-0.1219,-0.13,-0.1282,-0.1397,-0.1391,-0.1477,-0.1475,-0.1567,-0.1475,-0.1484,-0.1492,-0.159,-0.1586,-0.1673,-0.1689,-0.1702,-0.166,0,0,0,0,0]},{"header":{"parameterUnit":"m.s-1","parameterCategory":2,"la1":30.2991,"la2":30.254,"lo1":-89.0895,"lo2":-89.0444,"dy":0.0017,"dx":0.0017,"nx":28,"ny":28,"refTime":"2025-08-30T21:00:00:Z","depth":"4","parameterNumber":3,"parameterNumberName":"V-component_of_CURRENTS"},"data":[0,0,0,0,0,0,0,0,0,0,0,0,0,0,0,0,0,0,0,0,0,0,0,0,0,0,0,0,0,0,0,0,0,0,0,0,0,0,0,0,0,0,0,0,0,0,0,0,0,0,0,0,0,0,0,0,0,0,-0.0143,-0.0143,0,-0.0117,-0.0117,-0.0116,-0.0087,-0.0087,-0.0087,-0.0087,-0.003,-0.0029,-0.0028,0,0,0,0,0,0,0,0,0,0,0,0,0,-0.0179,-0.0178,-0.0143,-0.0143,-0.0142,-0.0117,-0.0117,-0.0116,-0.0088,-0.0087,-0.0087,-0.0086,-0.003,-0.0029,-0.0027,0,0,0,0,0,0,0,0,0,0,0,0,0,-0.0158,-0.0178,-0.0143,-0.0126,-0.0124,-0.0117,-0.0117,-0.0116,-0.0088,-0.0087,-0.0087,-0.0086,-0.0031,-0.0029,-0.0027,-0.0025,0,0,-0.0022,-0.0021,0,0,0,0,0,0,0,0,-0.0159,-0.0156,-0.0129,-0.0127,-0.0125,-0.0106,-0.0109,-0.0085,-0.0088,-0.01,-0.0087,-0.0086,-0.0054,-0.005,-0.0045,-0.0022,-0.002,-0.0022,-0.002,-0.002,-0.0019,0,0,0,0,0,0,0,-0.016,-0.0157,-0.0131,-0.0129,-0.0127,-0.0124,-0.012,-0.0104,-0.0078,-0.0099,-0.0097,-0.0097,-0.0052,-0.0047,-0.0043,-0.0019,-0.0022,-0.002,-0.0019,-0.0018,0.0017,0.0017,0,0,0,0,0,0,-0.0166,-0.0159,-0.0132,-0.0131,-0.0143,-0.0124,-0.012,-0.0112,-0.0079,-0.0074,-0.0097,-0.0095,-0.005,-0.0045,-0.0041,-0.0028,-0.002,-0.0018,-0.0017,0.0018,0.0017,0.0017,0,0,0,0,0,0,-0.0167,-0.0164,-0.0133,-0.0146,-0.0142,-0.0124,-0.0115,-0.0111,-0.0105,-0.0078,-0.0072,-0.0095,-0.0049,-0.0044,-0.0028,-0.0025,-0.0017,-0.0015,0.0018,0.0018,0.0017,-0.0006,0,0,0,0,0,0,-0.0168,-0.0164,-0.0167,-0.0146,-0.0141,-0.0132,-0.0116,-0.0111,-0.0106,-0.0104,-0.0074,-0.0069,-0.0049,-0.0031,-0.0026,-0.0023,-0.0014,0.0018,0.0018,0.0017,-0.0005,-0.0007,-0.0009,0,0,0,0,0,-0.0169,-0.0176,-0.0167,-0.0165,-0.0143,-0.0132,-0.013,-0.0115,-0.0107,-0.0107,-0.0086,-0.007,-0.0029,-0.003,-0.0024,-0.002,0.0018,0.0018,0.0017,-0.0004,-0.0007,-0.0009,0,0,0,0,0,0,-0.0198,-0.0174,-0.0163,-0.0163,-0.015,-0.0128,-0.0132,-0.0118,-0.0103,-0.0101,-0.0072,-0.0065,-0.005,-0.0035,-0.0036,-0.0011,-0.0003,-0.0002,-0.0021,-0.0023,-0.0025,-0.0034,-0.0012,0,0,0,0,0,-0.0206,-0.0205,-0.0178,-0.0182,-0.0174,-0.0153,-0.0149,-0.0136,-0.0118,-0.0111,-0.0088,-0.0067,-0.0048,-0.0036,-0.0018,-0.0006,0.0023,0.0,-0.0002,-0.0003,-0.0008,0.0045,0.0048,0.0016,0.0016,0.0016,0,0,-0.0222,-0.0209,-0.0209,-0.0189,-0.0178,-0.0174,-0.0149,-0.0145,-0.0142,-0.0108,-0.0098,-0.0073,-0.0047,-0.0031,-0.0023,-0.0018,0.002,-0.0004,-0.0005,-0.0009,0.0045,0.0048,0.0051,0.0016,0.0016,0.0016,0,0,-0.0257,-0.0237,-0.0247,-0.0233,-0.0217,-0.0198,-0.0197,-0.017,-0.0157,-0.0145,-0.0118,-0.0093,-0.0068,-0.0043,-0.0029,-0.0032,0.0008,-0.0025,-0.0039,0.0012,0.0015,0.0019,0.0059,0.0066,-0.0024,-0.0024,-0.0024,0,-0.0278,-0.0282,-0.0251,-0.0254,-0.0251,-0.0209,-0.0218,-0.0197,-0.017,-0.0158,-0.0148,-0.0096,-0.0075,-0.0045,-0.0047,-0.0036,-0.0001,-0.0032,0.0011,0.0015,0.0018,0.0059,0.0067,-0.0026,-0.0025,-0.0025,-0.0025,0,-0.0313,-0.0318,-0.0323,-0.0309,-0.0299,-0.03,-0.0264,-0.0248,-0.0226,-0.0199,-0.0165,-0.0126,-0.0095,-0.0081,-0.0067,-0.0029,-0.0012,0.0003,0.0017,0.002,0.0063,0.0072,-0.0027,-0.0027,-0.0027,-0.0026,0,0,-0.0346,-0.0349,-0.035,-0.0358,-0.0327,-0.0323,-0.0311,-0.0284,-0.0272,-0.023,-0.0209,-0.0167,-0.0132,-0.0114,-0.0079,-0.0035,0.0018,-0.0009,-0.0005,0.0033,0.0131,0.0117,0.0125,0.0048,0.005,0.0051,0.015,0,-0.0383,-0.0414,-0.0398,-0.042,-0.0427,-0.0386,-0.0379,-0.0346,-0.0307,-0.0272,-0.021,-0.0179,-0.0147,-0.0129,-0.0077,-0.0006,0.0041,-0.0011,0.0121,0.0125,0.0113,0.0135,0.0055,0.0157,0.0159,0.0161,0.0162,0,-0.0413,-0.0431,-0.0468,-0.0475,-0.0473,-0.0479,-0.0451,-0.0438,-0.037,-0.0339,-0.0279,-0.0223,-0.0153,-0.0128,0.0006,-0.0024,0.0046,0.0104,0.011,0.0109,0.0126,0.0154,0.0178,0.0177,0.0176,0.0175,0.0174,0,-0.0447,-0.0473,-0.051,-0.0511,-0.051,-0.052,-0.0513,-0.0462,-0.0448,-0.0376,-0.0351,-0.025,-0.0202,-0.0093,0.0025,0.0023,0.0175,0.0188,0.0244,0.0244,0.0238,0.0233,0.0282,0.0282,0.0282,0.0282,0.0281,0,-0.0477,-0.0505,-0.0536,-0.0553,-0.059,-0.0569,-0.0583,-0.0554,-0.0509,-0.0483,-0.039,-0.0343,-0.019,-0.0082,0.0026,0.0161,0.018,0.0245,0.0271,0.0224,0.0217,0.0244,0.0238,0.0285,0.0285,0.0284,0.0283,0,-0.05,-0.0522,-0.0567,-0.0596,-0.061,-0.0634,-0.0643,-0.064,-0.0593,-0.0555,-0.0534,-0.0405,-0.026,-0.0107,0.0074,0.0151,0.0284,0.0325,0.0258,0.0279,0.0319,0.0311,0.0403,0.0403,0.0404,0.0404,0.0404,0,-0.0514,-0.0543,-0.0606,-0.0642,-0.0662,-0.0696,-0.0713,-0.0687,-0.0675,-0.0588,-0.0567,-0.0428,-0.0326,-0.0078,0.0074,0.0285,0.0308,0.0369,0.0349,0.0317,0.0334,0.0325,0.0317,0.0405,0.0405,0.0405,0.0405,0,-0.0535,-0.0566,-0.0604,-0.0682,-0.0726,-0.0762,-0.0782,-0.078,-0.0729,-0.0692,-0.0576,-0.0434,-0.0271,-0.0078,0.0084,0.0231,0.0327,0.0373,0.0373,0.0355,0.032,0.0334,0.0326,0.0406,0.0406,0.0406,0.0406,0,-0.0549,-0.0587,-0.0648,-0.0709,-0.0771,-0.0804,-0.0813,-0.0786,-0.0764,-0.066,-0.0625,-0.0437,-0.0325,-0.0106,0.0043,0.0188,0.0223,0.0256,0.0263,0.0264,0.0188,0.0121,0.0173,0,0,0,0,0,-0.0556,-0.0602,-0.0667,-0.0735,-0.0795,-0.0825,-0.0844,-0.0836,-0.0793,-0.0715,-0.0664,-0.0506,-0.0261,-0.0154,-0.0009,0.0037,0.0233,0.0207,0.0271,0.0412,0.0411,0.0344,0,0,0,0,0,0,-0.0564,-0.0629,-0.0666,-0.0739,-0.0786,-0.084,-0.0854,-0.0826,-0.0772,-0.071,-0.0577,-0.0489,-0.0252,-0.0341,-0.0012,0.0033,0.0088,0.0328,0.0331,0.0413,0.0412,0.0411,0.0341,0,0,0,0,0]}]]